RRR184 EGVN-LOWI

Flight info

Callsign RRR184
Flight time N/A
Altitude 31000
Route DCT COWLY DCT WEALD DCT DIMAL DCT AKELU DCT USUDO DCT ELMEM ELMEM1A
Aircraft A400/H-S/L

Departure

Time 2026-04-22 09:10
Airport RAF Brize Norton (EGVN)

Arrival

Time N/A
Airport Innsbruck Airport (LOWI)
Time Latitude Longitude Altitude Speed Heading
2026-04-22 08:57 51.74625 -1.59022 291 ft 0 kts 345°
2026-04-22 09:03 51.74629 -1.59025 291 ft 3 kts 333°
2026-04-22 09:03 51.74631 -1.59056 274 ft 5 kts 267°
2026-04-22 09:04 51.74602 -1.59076 286 ft 9 kts 198°
2026-04-22 09:04 51.74536 -1.59149 294 ft 13 kts 241°
2026-04-22 09:04 51.74505 -1.59302 296 ft 15 kts 257°
2026-04-22 09:04 51.74476 -1.59479 297 ft 18 kts 250°
2026-04-22 09:05 51.74434 -1.59681 298 ft 20 kts 255°
2026-04-22 09:05 51.74426 -1.59785 298 ft 2 kts 274°
2026-04-22 09:05 51.74438 -1.59854 302 ft 9 kts 289°
2026-04-22 09:05 51.74472 -1.59959 303 ft 12 kts 300°
2026-04-22 09:06 51.74492 -1.60102 301 ft 14 kts 266°
2026-04-22 09:06 51.74500 -1.60262 305 ft 16 kts 309°
2026-04-22 09:06 51.74532 -1.60308 306 ft 0 kts 320°
2026-04-22 09:08 51.74548 -1.60328 305 ft 5 kts 320°
2026-04-22 09:08 51.74581 -1.60360 305 ft 5 kts 342°
2026-04-22 09:08 51.74612 -1.60348 304 ft 4 kts 40°
2026-04-22 09:08 51.74623 -1.60321 302 ft 2 kts 58°
2026-04-22 09:09 51.74627 -1.60307 302 ft 2 kts 68°
2026-04-22 09:09 51.74637 -1.60251 303 ft 5 kts 74°
2026-04-22 09:09 51.74638 -1.60246 302 ft 2 kts 74°
2026-04-22 09:09 51.74724 -1.59787 297 ft 88 kts 73°
2026-04-22 09:10 51.74987 -1.58426 414 ft 154 kts 72°
2026-04-22 09:10 51.75346 -1.56612 732 ft 184 kts 72°
2026-04-22 09:10 51.75725 -1.54557 1429 ft 190 kts 79°
2026-04-22 09:10 51.75579 -1.52416 2101 ft 208 kts 115°
2026-04-22 09:11 51.74699 -1.50467 2836 ft 220 kts 121°
2026-04-22 09:11 51.73846 -1.48379 3654 ft 226 kts 119°
2026-04-22 09:11 51.73044 -1.46180 4497 ft 229 kts 117°
2026-04-22 09:11 51.72292 -1.43882 5405 ft 232 kts 115°
2026-04-22 09:12 51.71579 -1.41518 6323 ft 236 kts 114°
2026-04-22 09:12 51.70885 -1.39100 7238 ft 240 kts 114°
2026-04-22 09:12 51.70192 -1.36624 8152 ft 244 kts 113°
2026-04-22 09:12 51.69493 -1.34112 9063 ft 248 kts 113°
2026-04-22 09:13 51.68775 -1.31552 10030 ft 252 kts 113°
2026-04-22 09:13 51.68044 -1.28956 10892 ft 256 kts 114°
2026-04-22 09:13 51.67300 -1.26335 11788 ft 259 kts 114°
2026-04-22 09:13 51.66543 -1.23680 12710 ft 262 kts 114°
2026-04-22 09:14 51.65773 -1.20988 13662 ft 266 kts 114°
2026-04-22 09:14 51.65001 -1.18299 14566 ft 270 kts 114°
2026-04-22 09:14 51.64205 -1.15529 15436 ft 274 kts 114°
2026-04-22 09:14 51.63399 -1.12726 16348 ft 278 kts 114°
2026-04-22 09:15 51.62580 -1.09880 17274 ft 283 kts 113°
2026-04-22 09:15 51.61751 -1.06976 18237 ft 287 kts 112°
2026-04-22 09:15 51.60949 -1.04004 19132 ft 292 kts 111°
2026-04-22 09:15 51.60163 -1.00957 20002 ft 297 kts 110°
2026-04-22 09:16 51.59380 -0.97853 20891 ft 303 kts 110°
2026-04-22 09:16 51.58585 -0.94682 21810 ft 308 kts 110°
2026-04-22 09:16 51.57779 -0.91471 22767 ft 312 kts 110°
2026-04-22 09:16 51.56958 -0.88222 23744 ft 315 kts 110°
2026-04-22 09:17 51.56128 -0.84949 24607 ft 318 kts 110°
2026-04-22 09:17 51.55288 -0.81656 25471 ft 319 kts 110°
2026-04-22 09:17 51.54443 -0.78356 26351 ft 320 kts 110°
2026-04-22 09:17 51.53585 -0.75007 27022 ft 330 kts 110°
2026-04-22 09:18 51.52687 -0.71497 27305 ft 351 kts 110°
2026-04-22 09:18 51.51732 -0.67766 27343 ft 374 kts 110°
2026-04-22 09:18 51.50712 -0.63794 27335 ft 394 kts 110°
2026-04-22 09:18 51.49641 -0.59636 27338 ft 409 kts 110°
2026-04-22 09:19 51.48542 -0.55393 27341 ft 414 kts 110°
2026-04-22 09:19 51.47431 -0.51117 27347 ft 416 kts 110°
2026-04-22 09:19 51.46316 -0.46834 27340 ft 416 kts 110°
2026-04-22 09:19 51.45197 -0.42542 27399 ft 420 kts 110°
2026-04-22 09:20 51.44070 -0.38219 27785 ft 421 kts 110°
2026-04-22 09:20 51.42936 -0.33879 28175 ft 423 kts 110°
2026-04-22 09:20 51.41797 -0.29522 28511 ft 425 kts 110°
2026-04-22 09:20 51.40649 -0.25142 28826 ft 428 kts 110°
2026-04-22 09:21 51.39492 -0.20732 29135 ft 430 kts 110°
2026-04-22 09:21 51.38329 -0.16307 29440 ft 433 kts 110°
2026-04-22 09:21 51.37155 -0.11854 29734 ft 435 kts 110°
2026-04-22 09:21 51.35974 -0.07381 30008 ft 437 kts 110°
2026-04-22 09:22 51.34786 -0.02890 30284 ft 439 kts 110°
2026-04-22 09:22 51.33435 0.01495 30579 ft 442 kts 119°
2026-04-22 09:22 51.31652 0.05497 30904 ft 442 kts 129°
2026-04-22 09:22 51.29623 0.09182 31235 ft 440 kts 132°
2026-04-22 09:23 51.27519 0.12751 31341 ft 442 kts 134°
2026-04-22 09:23 51.23193 0.19737 31342 ft 442 kts 135°
2026-04-22 09:23 51.21019 0.23200 31532 ft 442 kts 135°
2026-04-22 09:24 51.18846 0.26667 31548 ft 442 kts 134°
2026-04-22 09:24 51.14508 0.33623 31556 ft 443 kts 134°
2026-04-22 09:25 51.10174 0.40593 31561 ft 443 kts 134°
2026-04-22 09:25 51.05840 0.47556 31530 ft 443 kts 134°
2026-04-22 09:26 51.01490 0.54522 31477 ft 444 kts 134°
2026-04-22 09:26 50.97164 0.61428 31336 ft 444 kts 134°
2026-04-22 09:27 50.92803 0.68370 31337 ft 445 kts 134°
2026-04-22 09:27 50.88429 0.75314 31346 ft 445 kts 134°
2026-04-22 09:28 50.84172 0.82053 31345 ft 445 kts 134°
2026-04-22 09:28 50.79791 0.88969 31341 ft 446 kts 134°
2026-04-22 09:29 50.75447 0.95807 31339 ft 446 kts 134°
2026-04-22 09:29 50.71054 1.02702 31326 ft 447 kts 134°
2026-04-22 09:30 50.66630 1.09628 31312 ft 447 kts 134°
2026-04-22 09:30 50.62210 1.16528 31294 ft 447 kts 134°
2026-04-22 09:31 50.57782 1.23420 31290 ft 448 kts 134°
2026-04-22 09:31 50.53348 1.30302 31290 ft 448 kts 134°
2026-04-22 09:32 50.49479 1.37891 31290 ft 444 kts 116°
2026-04-22 09:32 50.47201 1.46807 31290 ft 439 kts 104°
2026-04-22 09:33 50.45390 1.55956 31296 ft 439 kts 102°
2026-04-22 09:33 50.43650 1.65126 31294 ft 439 kts 102°
2026-04-22 09:34 50.41877 1.74283 31295 ft 439 kts 103°
2026-04-22 09:34 50.40068 1.83439 31289 ft 439 kts 103°
2026-04-22 09:35 50.37330 1.97143 31286 ft 440 kts 103°
2026-04-22 09:35 50.35495 2.06275 31284 ft 440 kts 103°
2026-04-22 09:36 50.33653 2.15399 31278 ft 440 kts 103°
2026-04-22 09:36 50.31819 2.24452 31281 ft 439 kts 103°
2026-04-22 09:37 50.29965 2.33557 31278 ft 439 kts 103°
2026-04-22 09:37 50.28105 2.42653 31283 ft 439 kts 103°
2026-04-22 09:38 50.26237 2.51742 31272 ft 439 kts 103°
2026-04-22 09:38 50.24363 2.60823 31278 ft 439 kts 103°
2026-04-22 09:39 50.22485 2.69875 31277 ft 438 kts 104°
2026-04-22 09:39 50.20602 2.78914 31273 ft 437 kts 104°
2026-04-22 09:40 50.18720 2.87911 31271 ft 436 kts 104°
2026-04-22 09:40 50.16832 2.96895 31271 ft 435 kts 104°
2026-04-22 09:41 50.14940 3.05857 31269 ft 435 kts 104°
2026-04-22 09:41 50.13056 3.14740 31271 ft 434 kts 104°
2026-04-22 09:42 50.11159 3.23645 31268 ft 432 kts 105°
2026-04-22 09:42 50.09263 3.32509 31271 ft 430 kts 105°
2026-04-22 09:43 50.07367 3.41335 31269 ft 429 kts 105°
2026-04-22 09:43 50.05473 3.50111 31270 ft 427 kts 105°
2026-04-22 09:44 50.03582 3.58838 31269 ft 425 kts 106°
2026-04-22 09:44 50.01698 3.67496 31264 ft 424 kts 106°
2026-04-22 09:45 49.99878 3.75827 31265 ft 424 kts 106°
2026-04-22 09:45 49.97978 3.84487 31266 ft 423 kts 106°
2026-04-22 09:46 49.96075 3.93124 31268 ft 422 kts 106°
2026-04-22 09:46 49.94169 4.01742 31263 ft 421 kts 107°
2026-04-22 09:47 49.92259 4.10336 31263 ft 420 kts 107°
2026-04-22 09:47 49.90349 4.18900 31262 ft 420 kts 107°
2026-04-22 09:48 49.88435 4.27449 31265 ft 419 kts 107°
2026-04-22 09:48 49.86515 4.35984 31261 ft 419 kts 107°
2026-04-22 09:49 49.84602 4.44454 31261 ft 419 kts 107°
2026-04-22 09:49 49.82671 4.52970 31259 ft 418 kts 107°
2026-04-22 09:50 49.80736 4.61474 31261 ft 418 kts 107°
2026-04-22 09:50 49.78795 4.69965 31261 ft 418 kts 107°
2026-04-22 09:51 49.76848 4.78449 31258 ft 418 kts 107°
2026-04-22 09:51 49.74894 4.86932 31259 ft 419 kts 107°
2026-04-22 09:52 49.72935 4.95406 31265 ft 419 kts 107°
2026-04-22 09:52 49.70966 5.03883 31266 ft 419 kts 107°
2026-04-22 09:53 49.68989 5.12362 31262 ft 419 kts 107°
2026-04-22 09:53 49.67006 5.20838 31262 ft 420 kts 107°
2026-04-22 09:54 49.65015 5.29306 31257 ft 420 kts 107°
2026-04-22 09:54 49.63357 5.36342 31257 ft 420 kts 107°
2026-04-22 09:55 49.61030 5.46172 31258 ft 420 kts 107°
2026-04-22 09:55 49.59021 5.54625 31252 ft 420 kts 107°
2026-04-22 09:56 49.57333 5.61698 31249 ft 420 kts 107°
2026-04-22 09:56 49.55314 5.70131 31270 ft 419 kts 108°
2026-04-22 09:57 49.53293 5.78539 31262 ft 419 kts 108°
2026-04-22 09:57 49.51261 5.86960 31262 ft 419 kts 108°
2026-04-22 09:58 49.49241 5.95300 31276 ft 419 kts 108°
2026-04-22 09:58 49.48418 5.98692 31282 ft 419 kts 108°
2026-04-22 09:59 49.47192 6.03731 31281 ft 419 kts 108°
2026-04-22 09:59 49.45145 6.12118 31284 ft 419 kts 108°
2026-04-22 10:00 49.43093 6.20494 31282 ft 419 kts 108°
2026-04-22 10:00 49.41036 6.28857 31268 ft 419 kts 108°
2026-04-22 10:01 49.38973 6.37216 31269 ft 419 kts 108°
2026-04-22 10:01 49.36840 6.45532 31265 ft 420 kts 113°
2026-04-22 10:02 49.34083 6.53440 31251 ft 421 kts 117°
2026-04-22 10:02 49.31172 6.61232 31243 ft 421 kts 118°
2026-04-22 10:03 49.28225 6.68995 31251 ft 421 kts 118°
2026-04-22 10:03 49.25284 6.76743 31255 ft 421 kts 118°
2026-04-22 10:04 49.22346 6.84488 31259 ft 421 kts 118°
2026-04-22 10:04 49.19403 6.92236 31267 ft 421 kts 118°
2026-04-22 10:05 49.16458 6.99966 31263 ft 420 kts 118°
2026-04-22 10:05 49.13530 7.07626 31268 ft 420 kts 118°
2026-04-22 10:06 49.10579 7.15326 31264 ft 420 kts 118°
2026-04-22 10:06 49.07626 7.23008 31264 ft 420 kts 118°
2026-04-22 10:07 49.04662 7.30695 31262 ft 420 kts 118°
2026-04-22 10:07 49.01692 7.38373 31247 ft 421 kts 118°
2026-04-22 10:08 48.98715 7.46050 31255 ft 421 kts 118°
2026-04-22 10:08 48.95730 7.53725 31257 ft 421 kts 119°
2026-04-22 10:09 48.92740 7.61391 31267 ft 422 kts 119°
2026-04-22 10:09 48.89741 7.69058 31268 ft 422 kts 119°
2026-04-22 10:10 48.86737 7.76714 31261 ft 422 kts 119°
2026-04-22 10:10 48.83730 7.84355 31265 ft 422 kts 119°
2026-04-22 10:11 48.80732 7.91953 31267 ft 422 kts 119°
2026-04-22 10:11 48.77713 7.99581 31269 ft 422 kts 119°
2026-04-22 10:12 48.74681 8.07221 31264 ft 422 kts 119°
2026-04-22 10:12 48.71646 8.14846 31272 ft 423 kts 119°
2026-04-22 10:13 48.68602 8.22474 31260 ft 423 kts 120°
2026-04-22 10:13 48.65547 8.30104 31258 ft 424 kts 120°
2026-04-22 10:14 48.62489 8.37721 31252 ft 424 kts 120°
2026-04-22 10:14 48.59423 8.45337 31247 ft 425 kts 120°
2026-04-22 10:15 48.56348 8.52953 31240 ft 425 kts 120°
2026-04-22 10:15 48.53265 8.60569 31241 ft 425 kts 120°
2026-04-22 10:16 48.50173 8.68181 31239 ft 426 kts 120°
2026-04-22 10:16 48.47077 8.75787 31240 ft 426 kts 120°
2026-04-22 10:17 48.43976 8.83379 31237 ft 426 kts 120°
2026-04-22 10:17 48.40881 8.90937 31240 ft 426 kts 120°
2026-04-22 10:18 48.37764 8.98528 31231 ft 426 kts 120°
2026-04-22 10:18 48.34656 9.06073 31231 ft 427 kts 120°
2026-04-22 10:19 48.31534 9.13632 31232 ft 427 kts 120°
2026-04-22 10:19 48.28393 9.21217 31234 ft 428 kts 120°
2026-04-22 10:20 48.25260 9.28760 31237 ft 429 kts 121°
2026-04-22 10:20 48.22077 9.36403 31252 ft 429 kts 120°
2026-04-22 10:21 48.20511 9.40157 31027 ft 431 kts 121°
2026-04-22 10:21 48.18900 9.44011 30779 ft 430 kts 121°
2026-04-22 10:21 48.17333 9.47753 30542 ft 429 kts 121°
2026-04-22 10:21 48.15727 9.51585 30292 ft 429 kts 121°
2026-04-22 10:22 48.14162 9.55313 30012 ft 429 kts 121°
2026-04-22 10:22 48.12573 9.59093 29721 ft 427 kts 121°
2026-04-22 10:22 48.10994 9.62843 29429 ft 425 kts 121°
2026-04-22 10:22 48.09296 9.66437 29160 ft 423 kts 131°
2026-04-22 10:23 48.07152 9.69436 28886 ft 422 kts 140°
2026-04-22 10:23 48.04867 9.72162 28600 ft 419 kts 142°
2026-04-22 10:23 48.02561 9.74812 28322 ft 417 kts 142°
2026-04-22 10:23 48.00256 9.77429 28054 ft 415 kts 142°
2026-04-22 10:24 47.97962 9.80025 27780 ft 413 kts 142°
2026-04-22 10:24 47.95675 9.82608 27501 ft 411 kts 142°
2026-04-22 10:24 47.93404 9.85168 27242 ft 409 kts 142°
2026-04-22 10:24 47.91141 9.87717 26988 ft 407 kts 142°
2026-04-22 10:25 47.88885 9.90254 26728 ft 405 kts 142°
2026-04-22 10:25 47.86635 9.92781 26466 ft 404 kts 142°
2026-04-22 10:25 47.84398 9.95292 26218 ft 402 kts 142°
2026-04-22 10:25 47.82173 9.97786 25967 ft 400 kts 142°
2026-04-22 10:26 47.79947 10.00278 25715 ft 398 kts 142°
2026-04-22 10:26 47.77743 10.02744 25467 ft 396 kts 142°
2026-04-22 10:26 47.75542 10.05204 25216 ft 395 kts 142°
2026-04-22 10:26 47.73353 10.07648 24975 ft 393 kts 142°
2026-04-22 10:27 47.71176 10.10075 24730 ft 391 kts 142°
2026-04-22 10:27 47.69002 10.12496 24481 ft 389 kts 142°
2026-04-22 10:27 47.66839 10.14903 24239 ft 388 kts 142°
2026-04-22 10:27 47.64690 10.17291 24009 ft 386 kts 142°
2026-04-22 10:28 47.62545 10.19673 23762 ft 384 kts 142°
2026-04-22 10:28 47.60412 10.22039 23486 ft 382 kts 142°
2026-04-22 10:28 47.58292 10.24388 23197 ft 380 kts 142°
2026-04-22 10:28 47.56180 10.26725 22913 ft 378 kts 142°
2026-04-22 10:29 47.54077 10.29050 22636 ft 376 kts 142°
2026-04-22 10:29 47.51985 10.31361 22359 ft 375 kts 142°
2026-04-22 10:29 47.49900 10.33661 22082 ft 373 kts 142°
2026-04-22 10:29 47.47820 10.35955 21825 ft 372 kts 142°
2026-04-22 10:30 47.45750 10.38234 21564 ft 371 kts 142°
2026-04-22 10:30 47.43714 10.40474 21295 ft 369 kts 142°
2026-04-22 10:30 47.41658 10.42734 21018 ft 368 kts 142°
2026-04-22 10:30 47.39608 10.44985 20769 ft 366 kts 142°
2026-04-22 10:31 47.37566 10.47226 20515 ft 365 kts 143°
2026-04-22 10:31 47.35531 10.49458 20259 ft 364 kts 143°
2026-04-22 10:31 47.33475 10.51706 20006 ft 363 kts 143°
2026-04-22 10:31 47.31456 10.53916 19763 ft 361 kts 142°
2026-04-22 10:32 47.29560 10.56319 19510 ft 359 kts 132°
2026-04-22 10:32 47.28122 10.59225 19257 ft 354 kts 116°
2026-04-22 10:32 47.27118 10.62522 19029 ft 352 kts 109°
2026-04-22 10:32 47.26248 10.65877 18794 ft 350 kts 108°
2026-04-22 10:33 47.25402 10.69223 18552 ft 348 kts 108°
2026-04-22 10:33 47.24556 10.72551 18300 ft 347 kts 108°
2026-04-22 10:33 47.23707 10.75870 18021 ft 345 kts 109°
2026-04-22 10:33 47.22860 10.79159 17747 ft 343 kts 109°
2026-04-22 10:34 47.22014 10.82430 17489 ft 342 kts 109°
2026-04-22 10:34 47.21166 10.85700 17229 ft 341 kts 109°
2026-04-22 10:34 47.20323 10.88948 16959 ft 339 kts 109°
2026-04-22 10:34 47.19481 10.92180 16706 ft 338 kts 109°
2026-04-22 10:35 47.18638 10.95411 16448 ft 337 kts 109°
2026-04-22 10:35 47.17797 10.98627 16200 ft 336 kts 109°
2026-04-22 10:35 47.16960 11.01827 15935 ft 335 kts 109°
2026-04-22 10:35 47.16129 11.04998 15692 ft 333 kts 109°
2026-04-22 10:36 47.15297 11.08173 15445 ft 333 kts 109°
2026-04-22 10:36 47.14467 11.11336 15198 ft 331 kts 109°
2026-04-22 10:36 47.13640 11.14481 14947 ft 330 kts 109°
2026-04-22 10:36 47.12814 11.17616 14697 ft 328 kts 109°
2026-04-22 10:37 47.11991 11.20736 14459 ft 327 kts 109°
2026-04-22 10:37 47.10363 11.26895 14027 ft 324 kts 109°
2026-04-22 10:37 47.09546 11.29978 13999 ft 324 kts 110°
2026-04-22 10:38 47.08729 11.33059 13993 ft 323 kts 109°
2026-04-22 10:38 47.07913 11.36133 13998 ft 324 kts 110°
2026-04-22 10:38 47.07096 11.39207 14000 ft 324 kts 110°
2026-04-22 10:38 47.06276 11.42288 13999 ft 324 kts 110°
2026-04-22 10:39 47.05455 11.45369 13994 ft 324 kts 110°
2026-04-22 10:39 47.04643 11.48450 13995 ft 324 kts 108°
2026-04-22 10:39 47.04141 11.51650 13994 ft 321 kts 92°
2026-04-22 10:39 47.04343 11.54869 14000 ft 317 kts 72°
2026-04-22 10:40 47.05166 11.57851 14004 ft 315 kts 62°
2026-04-22 10:40 47.06168 11.60706 14009 ft 315 kts 60°
2026-04-22 10:40 47.07198 11.63544 14006 ft 315 kts 59°
2026-04-22 10:40 47.08206 11.66336 14002 ft 301 kts 59°
2026-04-22 10:41 47.09148 11.68971 14008 ft 282 kts 59°
2026-04-22 10:41 47.10033 11.71457 14010 ft 268 kts 59°
2026-04-22 10:41 47.10595 11.73037 14008 ft 260 kts 59°
2026-04-22 10:41 47.11487 11.75281 13948 ft 250 kts 51°
2026-04-22 10:42 47.12608 11.77212 13689 ft 248 kts 43°
2026-04-22 10:42 47.13823 11.79012 13411 ft 248 kts 41°
2026-04-22 10:42 47.15051 11.80783 13138 ft 247 kts 41°
2026-04-22 10:42 47.16275 11.82546 12868 ft 245 kts 41°
2026-04-22 10:43 47.17485 11.84298 12631 ft 243 kts 42°
2026-04-22 10:43 47.18689 11.86046 12360 ft 243 kts 42°
2026-04-22 10:43 47.19903 11.87774 12106 ft 242 kts 38°
2026-04-22 10:43 47.21261 11.89163 12026 ft 233 kts 23°
2026-04-22 10:44 47.22772 11.89928 12025 ft 229 kts 10°
2026-04-22 10:44 47.24354 11.90328 11840 ft 231 kts
2026-04-22 10:44 47.25937 11.90638 11723 ft 228 kts
2026-04-22 10:44 47.27505 11.90934 11581 ft 227 kts
2026-04-22 10:45 47.29067 11.91232 11410 ft 227 kts
2026-04-22 10:45 47.30684 11.91543 10848 ft 242 kts
2026-04-22 10:45 47.32345 11.91868 10612 ft 237 kts
2026-04-22 10:45 47.33955 11.92187 10531 ft 231 kts
2026-04-22 10:46 47.35539 11.92476 10440 ft 227 kts
2026-04-22 10:46 47.37066 11.92274 10201 ft 222 kts 341°
2026-04-22 10:46 47.38390 11.91158 9910 ft 220 kts 315°
2026-04-22 10:46 47.39216 11.89283 9604 ft 218 kts 288°
2026-04-22 10:47 47.39364 11.87078 9524 ft 219 kts 263°
2026-04-22 10:47 47.38850 11.84961 9530 ft 222 kts 242°
2026-04-22 10:47 47.38014 11.83038 9514 ft 223 kts 240°
2026-04-22 10:47 47.37305 11.81050 9303 ft 215 kts 247°
2026-04-22 10:48 47.36710 11.79031 8961 ft 214 kts 249°
2026-04-22 10:48 47.36145 11.77017 8619 ft 210 kts 249°
2026-04-22 10:48 47.35599 11.75051 8298 ft 205 kts 250°
2026-04-22 10:48 47.35063 11.73117 7976 ft 202 kts 249°
2026-04-22 10:49 47.34533 11.71203 7671 ft 201 kts 249°
2026-04-22 10:49 47.34004 11.69294 7356 ft 201 kts 249°
2026-04-22 10:49 47.33474 11.67389 7042 ft 201 kts 249°
2026-04-22 10:49 47.32945 11.65488 6729 ft 200 kts 249°
2026-04-22 10:50 47.32423 11.63613 6403 ft 194 kts 249°
2026-04-22 10:50 47.31919 11.61806 6123 ft 189 kts 249°
2026-04-22 10:50 47.31421 11.60018 5818 ft 188 kts 249°
2026-04-22 10:50 47.30925 11.58241 5479 ft 188 kts 248°
2026-04-22 10:51 47.30429 11.56462 5198 ft 188 kts 248°
2026-04-22 10:51 47.29927 11.54667 4899 ft 190 kts 247°
2026-04-22 10:51 47.29424 11.52868 4666 ft 190 kts 247°
2026-04-22 10:51 47.28919 11.51063 4453 ft 190 kts 247°
2026-04-22 10:52 47.28414 11.49262 4200 ft 190 kts 249°
2026-04-22 10:52 47.27909 11.47461 3819 ft 190 kts 249°
2026-04-22 10:52 47.27410 11.45677 3500 ft 185 kts 250°
2026-04-22 10:52 47.27059 11.43897 3234 ft 177 kts 259°
2026-04-22 10:53 47.26842 11.42139 2935 ft 173 kts 262°
2026-04-22 10:53 47.26658 11.40430 2670 ft 160 kts 262°
2026-04-22 10:53 47.26502 11.38965 2503 ft 135 kts 263°
2026-04-22 10:53 47.26362 11.37673 2259 ft 123 kts 261°
2026-04-22 10:54 47.26217 11.36429 1956 ft 123 kts 257°
2026-04-22 10:54 47.26109 11.35027 2294 ft 152 kts 265°
2026-04-22 10:54 47.25964 11.33361 2883 ft 179 kts 266°
2026-04-22 10:54 47.25870 11.31376 3368 ft 210 kts 268°
2026-04-22 10:55 47.25837 11.29100 4015 ft 235 kts 274°
2026-04-22 10:55 47.26138 11.26640 4737 ft 254 kts 288°
2026-04-22 10:55 47.26696 11.24054 5147 ft 277 kts 290°
2026-04-22 10:55 47.27339 11.21310 6000 ft 284 kts 289°
2026-04-22 10:56 47.27947 11.18625 7547 ft 268 kts 289°
2026-04-22 10:56 47.28531 11.16210 8801 ft 231 kts 290°
2026-04-22 10:56 47.29081 11.14072 10182 ft 217 kts 290°
2026-04-22 10:56 47.29631 11.12027 11476 ft 216 kts 292°
2026-04-22 10:57 47.30207 11.09948 12404 ft 221 kts 292°
2026-04-22 10:57 47.30684 11.07781 12884 ft 224 kts 285°
2026-04-22 10:57 47.31029 11.05531 12997 ft 225 kts 283°
2026-04-22 10:57 47.31338 11.03282 12998 ft 224 kts 282°
2026-04-22 10:58 47.31644 11.01031 12992 ft 223 kts 284°
2026-04-22 10:58 47.31946 10.98788 12978 ft 223 kts 281°
2026-04-22 10:58 47.31860 10.96505 12971 ft 226 kts 252°
2026-04-22 10:58 47.30867 10.94728 12976 ft 233 kts 213°
2026-04-22 10:59 47.29275 10.94266 12980 ft 242 kts 173°
2026-04-22 10:59 47.27783 10.95388 12991 ft 247 kts 134°
2026-04-22 10:59 47.27048 10.97637 12985 ft 247 kts 94°
2026-04-22 10:59 47.27366 11.00059 13014 ft 243 kts 62°
2026-04-22 11:00 47.28184 11.02239 12987 ft 245 kts 58°
2026-04-22 11:00 47.29029 11.04433 12982 ft 245 kts 60°
2026-04-22 11:00 47.29792 11.06642 13003 ft 246 kts 65°
2026-04-22 11:00 47.30125 11.09101 13006 ft 247 kts 95°
2026-04-22 11:01 47.29710 11.11555 12990 ft 249 kts 111°
2026-04-22 11:01 47.29051 11.13928 13008 ft 251 kts 114°
2026-04-22 11:01 47.28348 11.16292 12994 ft 252 kts 115°
2026-04-22 11:01 47.27643 11.18654 12995 ft 252 kts 114°
2026-04-22 11:02 47.26943 11.21014 12995 ft 252 kts 114°
2026-04-22 11:02 47.26243 11.23388 13003 ft 252 kts 114°
2026-04-22 11:02 47.25598 11.25789 12991 ft 252 kts 105°
2026-04-22 11:02 47.25418 11.28324 13011 ft 249 kts 86°
2026-04-22 11:03 47.25607 11.30832 12957 ft 245 kts 81°
2026-04-22 11:03 47.25874 11.33310 12773 ft 245 kts 80°
2026-04-22 11:03 47.26152 11.35792 12600 ft 246 kts 79°
2026-04-22 11:03 47.26425 11.38276 12447 ft 246 kts 80°
2026-04-22 11:04 47.26693 11.40760 12302 ft 245 kts 80°
2026-04-22 11:04 47.26960 11.43236 12130 ft 245 kts 79°
2026-04-22 11:04 47.27406 11.45639 11974 ft 242 kts 69°
2026-04-22 11:04 47.28014 11.47945 11829 ft 241 kts 66°
2026-04-22 11:05 47.28653 11.50222 11674 ft 240 kts 66°
2026-04-22 11:05 47.29293 11.52485 11517 ft 239 kts 66°
2026-04-22 11:05 47.29929 11.54741 11349 ft 238 kts 66°
2026-04-22 11:05 47.30546 11.57010 11175 ft 238 kts 72°
2026-04-22 11:06 47.30488 11.59456 9996 ft 256 kts 120°
2026-04-22 11:06 47.29547 11.60403 6986 ft 234 kts 141°